Surat Thani, Thailand

1:31 AM ICT on July 24, 2016 (GMT +0700)
Surat Thani

Weather History for VTSB - November, 2012

Change the Weather History Date:

Friday, November 30, 2012

  Actual Average Record
Temperature  
Mean Temperature 82 °F -  
Max Temperature 89 °F 85 °F - ()
Min Temperature 74 °F 71 °F - ()
Cooling Degree Days 16    
Growing Degree Days 32 (Base 50)    
Moisture  
Dew Point 78 °F    
Average Humidity 90    
Maximum Humidity 100    
Minimum Humidity 65    
Precipitation  
Precipitation 0.71 in 0.17 in - ()
Sea Level Pressure  
Sea Level Pressure 29.79 in    
Wind  
Wind Speed 3 mph ()    
Max Wind Speed 14 mph    
Max Gust Speed -    
Visibility 5.0 miles    
Events      
T = Trace of Precipitation, MM = Missing Value Source: Averaged Metar Reports

Daily Weather History Graph

Daily Weather History Graph

Search for Another Location

Airport or City:

Trip Planner

Search our weather history database for the weather conditions in past years. The results will help you decide how hot, cold, wet, or windy it might be!

Date:

Astronomy

Nov. 30, 2012 Rise Set
Actual Time 6:23 AM ICT 6:01 PM ICT
Civil Twilight 6:00 AM ICT 6:23 PM ICT
Nautical Twilight 5:34 AM ICT 6:49 PM ICT
Astronomical Twilight 5:08 AM ICT 7:15 PM ICT
Moon 7:27 PM ICT (11/30) 7:31 AM ICT (11/30)
Length of Visible Light 12h 23m
Length of Day
11h 38m
Full, 98% of the Moon is Illuminated
Nov 30
Full
Dec 6
Last Quarter
Dec 13
New
Dec 20
First Quarter
Dec 28
Full

Hourly Weather History & Observations

Time (ICT) Temp. Heat Index Dew Point Humidity Pressure Visibility Wind Dir Wind Speed Gust Speed Precip Events Conditions
1:00 AM 77 °F - 75 °F 92% 29.80 in 4 mi Calm Calm - -   Mist
6:00 AM 75.2 °F - 75.2 °F 100% 29.77 in 3.1 mi Calm Calm - N/A   Scattered Clouds
7:00 AM 75 °F - 74 °F 95% 29.78 in 4 mi Calm Calm - -   Mist
7:00 AM 75.2 °F - 75.2 °F 100% 29.77 in 3.7 mi Calm Calm - N/A   Scattered Clouds
8:00 AM 77.0 °F - 77.0 °F 100% 29.80 in 6.2 mi SW 4.6 mph - N/A   Scattered Clouds
9:00 AM 80.6 °F 88.1 °F 78.8 °F 94% 29.83 in 6.2 mi Calm Calm - N/A   Scattered Clouds
10:00 AM 82.4 °F 92.4 °F 78.8 °F 89% 29.83 in 6.2 mi East 4.6 mph - N/A   Mostly Cloudy
11:00 AM 84.2 °F 96.1 °F 78.8 °F 84% 29.83 in 6.2 mi Calm Calm - N/A   Mostly Cloudy
12:00 PM 86.0 °F 99.3 °F 78.8 °F 79% 29.80 in 6.2 mi South 3.5 mph - N/A   Mostly Cloudy
1:00 PM 88 °F - 78 °F 65% 29.77 in 5 mi Calm Calm - -   Mist
1:00 PM 87.8 °F 102.5 °F 78.8 °F 75% 29.77 in 6.2 mi ENE 6.9 mph - N/A   Mostly Cloudy
2:00 PM 87.8 °F 102.5 °F 78.8 °F 75% 29.74 in 6.2 mi ENE 6.9 mph - N/A   Mostly Cloudy
3:00 PM 84.2 °F 96.1 °F 78.8 °F 84% 29.71 in 6.2 mi NE 13.8 mph - N/A   Overcast
4:00 PM 78.8 °F - 78.8 °F 100% 29.71 in 3.7 mi NE 8.1 mph - N/A   Overcast
5:00 PM 82.4 °F 92.4 °F 78.8 °F 89% 29.74 in 6.2 mi NNE 10.4 mph - N/A   Mostly Cloudy
7:00 PM 80 °F - 72 °F 71% 29.78 in 4 mi Calm Calm - -   Mist
7:00 PM 80.6 °F 88.1 °F 78.8 °F 94% 29.77 in 5.0 mi North 4.6 mph - N/A   Overcast
8:00 PM 78.8 °F - 78.8 °F 100% 29.80 in 4.3 mi NNE 6.9 mph - N/A   Mostly Cloudy
9:00 PM 78.8 °F - 78.8 °F 100% 29.83 in 4.3 mi NNW 5.8 mph - N/A   Mostly Cloudy
10:00 PM 78.8 °F - 77.0 °F 94% 29.83 in 4.3 mi NW 4.6 mph - N/A   Mostly Cloudy
11:00 PM 78.8 °F - 78.8 °F 100% 29.83 in 4.3 mi NNW 5.8 mph - N/A   Mostly Cloudy